Location: Acts Church of Fort Worth
(32.6786°N, 97.2668°W)
Time: 09:04:28
(UTC+00:00)

Cosmos 1500 Rocket - Pass Details

Date: 18 January 2026
Orbit: 597 x 623 km, 82.5° (Epoch: 9 February)

Event Time Altitude Azimuth Distance (km) Brightness Sun altitude
Rises 11:41:00 0° 192° (SSW) 2,843 6.9 -22.8°
Reaches altitude 10° 11:43:13 10° 196° (SSW) 1,947 6.0 -22.4°
Maximum altitude 11:47:29 63° 278° (W) 683 3.4 -21.5°
Drops below altitude 10° 11:51:49 10° 359° (N) 1,976 6.0 -20.6°
Sets 11:54:05 0° 3° (N) 2,889 6.9 -20.1°
